[[{"header":{"parameterUnit":"m.s-1","parameterCategory":1,"la1":30.2991,"la2":30.254,"lo1":-89.0895,"lo2":-89.0444,"dy":0.0017,"dx":0.0017,"nx":28,"ny":28,"refTime":"2024-04-07T03:00:00:Z","depth":0,"parameterNumber":2,"parameterNumberName":"U-component_of_WINDS"},"data":[0,0,0,0,0,0,0,0,0,0,0,0,0,0,0,0,0,0,0,0,0,0,0,0,0,0,0,0,0,0,0,0,0,0,0,0,0,0,0,0,0,0,0,0,0,0,0,0,0,0,0,0,0,0,0,0,0,0,-2.5525,-2.5525,0,-2.5522,-2.5522,-2.5522,-2.5496,-2.5495,-2.5494,-2.5494,-2.5492,-2.5493,-2.5493,0,0,0,0,0,0,0,0,0,0,0,0,0,-2.551,-2.551,-2.5525,-2.5525,-2.5525,-2.5522,-2.5522,-2.5522,-2.5496,-2.5495,-2.5494,-2.5493,-2.5492,-2.5493,-2.5494,0,0,0,0,0,0,0,0,0,0,0,0,0,-2.5513,-2.5511,-2.5525,-2.5512,-2.551,-2.5522,-2.5522,-2.5522,-2.5496,-2.5495,-2.5494,-2.5493,-2.5492,-2.5493,-2.5494,-2.5519,0,0,-2.5496,-2.5497,0,0,0,0,0,0,0,0,-2.5513,-2.5513,-2.5514,-2.5513,-2.5511,-2.5508,-2.5516,-2.5521,-2.5496,-2.5501,-2.5494,-2.5493,-2.5499,-2.5499,-2.55,-2.5519,-2.5519,-2.5496,-2.5497,-2.5497,-2.5497,0,0,0,0,0,0,0,-2.5513,-2.5513,-2.5524,-2.5514,-2.5512,-2.5506,-2.5506,-2.5517,-2.5506,-2.5501,-2.5499,-2.5499,-2.5498,-2.55,-2.55,-2.5519,-2.5496,-2.5497,-2.5498,-2.5498,-2.5557,-2.5558,0,0,0,0,0,0,-2.5514,-2.5513,-2.5524,-2.5524,-2.5509,-2.5507,-2.5507,-2.551,-2.5505,-2.5504,-2.55,-2.5498,-2.5499,-2.5499,-2.55,-2.5528,-2.5497,-2.5498,-2.5499,-2.5556,-2.5557,-2.5558,0,0,0,0,0,0,-2.5514,-2.5515,-2.5524,-2.5518,-2.5519,-2.5509,-2.5513,-2.5511,-2.5512,-2.5504,-2.5503,-2.5504,-2.5498,-2.5499,-2.5514,-2.5528,-2.5498,-2.5499,-2.5555,-2.5556,-2.5558,-2.5586,0,0,0,0,0,0,-2.5513,-2.5515,-2.5524,-2.5518,-2.5519,-2.5538,-2.5514,-2.5511,-2.5514,-2.5511,-2.5508,-2.5506,-2.5497,-2.5513,-2.5515,-2.5529,-2.55,-2.5553,-2.5555,-2.5557,-2.5583,-2.5588,-2.5592,0,0,0,0,0,-2.5513,-2.5533,-2.5525,-2.5526,-2.553,-2.5539,-2.5539,-2.5528,-2.5515,-2.5524,-2.5519,-2.5506,-2.5527,-2.5515,-2.5517,-2.5531,-2.5552,-2.5555,-2.5557,-2.5582,-2.5587,-2.5592,0,0,0,0,0,0,-2.5541,-2.5532,-2.5523,-2.5541,-2.5541,-2.5534,-2.5545,-2.5534,-2.5538,-2.5535,-2.5522,-2.5521,-2.5538,-2.5536,-2.5523,-2.5555,-2.5537,-2.554,-2.5555,-2.556,-2.5565,-2.5564,-2.5501,0,0,0,0,0,-2.5549,-2.5556,-2.5548,-2.5565,-2.5565,-2.5555,-2.5559,-2.555,-2.5549,-2.5549,-2.5545,-2.5546,-2.5552,-2.5556,-2.5562,-2.5584,-2.5582,-2.5595,-2.5599,-2.5602,-2.5605,-2.5616,-2.5621,-2.5566,-2.5566,-2.5566,0,0,-2.5566,-2.5562,-2.5567,-2.557,-2.5569,-2.5577,-2.5555,-2.5565,-2.5571,-2.5551,-2.5564,-2.5562,-2.5561,-2.558,-2.5588,-2.5579,-2.562,-2.5605,-2.5608,-2.5608,-2.5619,-2.5624,-2.5628,-2.5568,-2.5567,-2.5567,0,0,-2.56,-2.5599,-2.5612,-2.5611,-2.5609,-2.5603,-2.5606,-2.5601,-2.5598,-2.5612,-2.5597,-2.5605,-2.5616,-2.5616,-2.5617,-2.5653,-2.5641,-2.5655,-2.5677,-2.5688,-2.5692,-2.5696,-2.5708,-2.5712,-2.5658,-2.5658,-2.5658,0,-2.5622,-2.5633,-2.5621,-2.5631,-2.5632,-2.5615,-2.5628,-2.5629,-2.5629,-2.5631,-2.5621,-2.5634,-2.5633,-2.5651,-2.566,-2.5662,-2.5665,-2.5655,-2.5693,-2.5696,-2.5699,-2.5711,-2.5715,-2.566,-2.566,-2.5659,-2.5659,0,-2.5659,-2.5667,-2.5678,-2.5678,-2.5681,-2.5693,-2.5683,-2.5688,-2.568,-2.5675,-2.5689,-2.5687,-2.5691,-2.5695,-2.5687,-2.5712,-2.5706,-2.5695,-2.5676,-2.5706,-2.5717,-2.5721,-2.5662,-2.5661,-2.5661,-2.5661,0,0,-2.5709,-2.5703,-2.5707,-2.5707,-2.5704,-2.571,-2.5722,-2.5725,-2.573,-2.5731,-2.574,-2.5751,-2.574,-2.5742,-2.5734,-2.5744,-2.5771,-2.5731,-2.573,-2.5737,-2.5798,-2.5805,-2.581,-2.5764,-2.5765,-2.5765,-2.5797,0,-2.5742,-2.576,-2.575,-2.577,-2.5777,-2.5761,-2.5771,-2.577,-2.5766,-2.5772,-2.5768,-2.5774,-2.576,-2.5761,-2.577,-2.5766,-2.5783,-2.5763,-2.5772,-2.5772,-2.5771,-2.5816,-2.5824,-2.5854,-2.5801,-2.5802,-2.5802,0,-2.5782,-2.5784,-2.5805,-2.58,-2.5803,-2.5812,-2.5814,-2.582,-2.582,-2.5816,-2.5818,-2.5808,-2.582,-2.5803,-2.5818,-2.5806,-2.5809,-2.5807,-2.5808,-2.5807,-2.5788,-2.5815,-2.5864,-2.5868,-2.5809,-2.5808,-2.5808,0,-2.5816,-2.5824,-2.5837,-2.5838,-2.5833,-2.584,-2.5838,-2.5837,-2.584,-2.5843,-2.5844,-2.5849,-2.5851,-2.5855,-2.5847,-2.5835,-2.5863,-2.5846,-2.586,-2.5861,-2.5866,-2.5865,-2.5914,-2.587,-2.587,-2.587,-2.587,0,-2.5852,-2.5865,-2.5852,-2.586,-2.5874,-2.5863,-2.5877,-2.5874,-2.5873,-2.5881,-2.5868,-2.5875,-2.5864,-2.5871,-2.5865,-2.5878,-2.588,-2.5877,-2.5875,-2.5877,-2.5877,-2.5878,-2.5875,-2.5871,-2.5871,-2.5871,-2.5871,0,-2.5892,-2.5883,-2.5897,-2.5891,-2.589,-2.5901,-2.5896,-2.5904,-2.5899,-2.5909,-2.591,-2.5903,-2.591,-2.5902,-2.5909,-2.5905,-2.5923,-2.5918,-2.5922,-2.5921,-2.5935,-2.5933,-2.5985,-2.5991,-2.5944,-2.5945,-2.5945,0,-2.5915,-2.5924,-2.592,-2.5924,-2.5923,-2.5929,-2.5932,-2.5922,-2.5925,-2.5925,-2.5933,-2.5939,-2.5942,-2.5955,-2.595,-2.5955,-2.595,-2.5968,-2.5951,-2.5953,-2.5949,-2.5948,-2.5949,-2.5971,-2.5971,-2.5972,-2.5972,0,-2.5957,-2.5952,-2.5956,-2.5959,-2.5963,-2.5965,-2.5966,-2.597,-2.5959,-2.5964,-2.5971,-2.5974,-2.598,-2.5986,-2.599,-2.5989,-2.5979,-2.5978,-2.5981,-2.5983,-2.5985,-2.5983,-2.593,-2.5976,-2.5976,-2.5976,-2.5976,-2.5975,-2.5988,-2.5995,-2.5993,-2.5998,-2.5998,-2.5999,-2.6006,-2.6002,-2.6007,-2.6011,-2.6005,-2.6013,-2.6013,-2.6016,-2.6017,-2.6023,-2.6016,-2.6021,-2.6022,-2.6023,-2.6025,-2.5985,-2.6024,-2.6024,-2.6024,-2.6024,-2.6024,0,-2.6028,-2.6026,-2.6031,-2.6032,-2.6037,-2.6027,-2.6027,-2.6032,-2.6039,-2.6039,-2.6043,-2.6051,-2.6056,-2.6053,-2.6057,-2.6064,-2.6059,-2.6065,-2.6064,-2.6064,-2.6032,-2.6028,-2.6069,-2.6069,-2.6069,-2.6069,-2.6069,-2.6069,-2.6049,-2.6061,-2.6056,-2.6068,-2.6066,-2.6073,-2.6075,-2.6076,-2.6076,-2.6085,-2.6089,-2.6087,-2.6085,-2.609,-2.6095,-2.6094,-2.6096,-2.6103,-2.61,-2.6071,-2.6066,-2.6062,-2.6058,-2.6104,-2.6104,-2.6131,-2.6132,-2.6132]},{"header":{"parameterUnit":"m.s-1","parameterCategory":1,"la1":30.2991,"la2":30.254,"lo1":-89.0895,"lo2":-89.0444,"dy":0.0017,"dx":0.0017,"nx":28,"ny":28,"refTime":"2024-04-07T03:00:00:Z","depth":0,"parameterNumber":3,"parameterNumberName":"V-component_of_WINDS"},"data":[0,0,0,0,0,0,0,0,0,0,0,0,0,0,0,0,0,0,0,0,0,0,0,0,0,0,0,0,0,0,0,0,0,0,0,0,0,0,0,0,0,0,0,0,0,0,0,0,0,0,0,0,0,0,0,0,0,0,3.7188,3.7188,0,3.7138,3.7137,3.7137,3.7102,3.7102,3.7102,3.7102,3.7047,3.7046,3.7045,0,0,0,0,0,0,0,0,0,0,0,0,0,3.725,3.725,3.7188,3.7188,3.7187,3.7138,3.7137,3.7137,3.7102,3.7102,3.7102,3.7102,3.7048,3.7046,3.7045,0,0,0,0,0,0,0,0,0,0,0,0,0,3.7214,3.7249,3.7188,3.7164,3.7161,3.7138,3.7137,3.7136,3.7102,3.7102,3.7102,3.7101,3.7048,3.7047,3.7045,3.7041,0,0,3.7039,3.7038,0,0,0,0,0,0,0,0,3.7216,3.7212,3.7168,3.7166,3.7163,3.7126,3.7139,3.7104,3.7103,3.7125,3.7102,3.7101,3.7074,3.707,3.7061,3.7038,3.7036,3.7039,3.7038,3.7037,3.7037,0,0,0,0,0,0,0,3.7219,3.7214,3.7168,3.7168,3.7164,3.7154,3.7149,3.7133,3.7102,3.7123,3.712,3.7115,3.7072,3.7063,3.706,3.7035,3.7039,3.7037,3.7036,3.7036,3.7005,3.7005,0,0,0,0,0,0,3.7226,3.7216,3.717,3.7167,3.7189,3.7154,3.7147,3.7138,3.7102,3.7096,3.7115,3.7113,3.7066,3.7062,3.7057,3.705,3.7037,3.7035,3.7034,3.7004,3.7005,3.7005,0,0,0,0,0,0,3.7227,3.7222,3.7172,3.7191,3.7184,3.7153,3.7143,3.7137,3.7128,3.7096,3.709,3.7112,3.7066,3.706,3.7045,3.7048,3.7035,3.7033,3.7004,3.7005,3.7005,3.7036,0,0,0,0,0,0,3.7229,3.7223,3.7222,3.7191,3.7183,3.7162,3.7143,3.7137,3.7126,3.7123,3.7091,3.7086,3.7065,3.7048,3.7043,3.7045,3.7031,3.7004,3.7004,3.7005,3.7034,3.7037,3.7039,0,0,0,0,0,3.7231,3.7232,3.7222,3.7217,3.7182,3.7162,3.7157,3.7134,3.7126,3.7124,3.7103,3.7087,3.7048,3.7047,3.7041,3.7042,3.7004,3.7004,3.7005,3.7033,3.7037,3.7039,0,0,0,0,0,0,3.7264,3.7228,3.7216,3.7208,3.7188,3.7156,3.7154,3.7139,3.7121,3.7119,3.7089,3.7082,3.707,3.7054,3.7054,3.7036,3.7024,3.7023,3.7047,3.705,3.7052,3.7057,3.703,0,0,0,0,0,3.727,3.7259,3.7227,3.7222,3.7213,3.7185,3.7176,3.7159,3.7138,3.7129,3.7107,3.7086,3.7069,3.7058,3.7041,3.7031,3.7023,3.7029,3.7031,3.7034,3.7034,3.7027,3.7029,3.7007,3.7007,3.7007,0,0,3.7283,3.7262,3.7256,3.7228,3.7212,3.7199,3.7179,3.7166,3.7156,3.7127,3.7112,3.7095,3.7069,3.7057,3.705,3.7043,3.7038,3.7035,3.7037,3.7036,3.7027,3.7029,3.7031,3.7008,3.7007,3.7007,0,0,3.73,3.7283,3.7277,3.726,3.7235,3.7216,3.7214,3.7184,3.7172,3.7156,3.7134,3.712,3.7092,3.7074,3.7061,3.7069,3.7053,3.7064,3.7078,3.7071,3.7072,3.7074,3.7076,3.7077,3.7064,3.7064,3.7064,0,3.7319,3.7301,3.7276,3.7265,3.7252,3.7225,3.7218,3.7202,3.7172,3.7164,3.7156,3.7119,3.7099,3.7082,3.7084,3.7074,3.7071,3.7068,3.7074,3.7075,3.7076,3.7078,3.7079,3.7065,3.7065,3.7065,3.7065,0,3.7325,3.7312,3.731,3.7282,3.7269,3.726,3.7232,3.7222,3.7206,3.7187,3.717,3.7146,3.7122,3.7116,3.7101,3.7096,3.7093,3.708,3.7067,3.708,3.7082,3.7082,3.7067,3.7067,3.7066,3.7066,0,0,3.7364,3.7321,3.7321,3.7307,3.7276,3.7265,3.7253,3.7231,3.7222,3.7201,3.7191,3.7166,3.7153,3.7139,3.712,3.7114,3.7121,3.7102,3.7101,3.7106,3.7114,3.7124,3.7126,3.7109,3.7109,3.7109,3.7116,0,3.7377,3.7357,3.7333,3.732,3.7307,3.728,3.7269,3.7248,3.7229,3.7214,3.7193,3.7176,3.7161,3.7152,3.7145,3.7122,3.7122,3.7121,3.7098,3.7098,3.7107,3.7126,3.7138,3.7145,3.7116,3.7116,3.7116,0,3.739,3.7371,3.7358,3.7326,3.732,3.7311,3.7288,3.7274,3.7249,3.7235,3.7218,3.7198,3.7182,3.717,3.7148,3.7148,3.7136,3.7123,3.7123,3.7121,3.7109,3.7125,3.7147,3.7149,3.7117,3.7117,3.7117,0,3.742,3.7391,3.7379,3.7368,3.7331,3.7326,3.731,3.7284,3.7271,3.725,3.7241,3.7218,3.7206,3.7187,3.716,3.7154,3.7141,3.7127,3.7128,3.7129,3.7128,3.7129,3.7149,3.712,3.712,3.712,3.7119,0,3.7438,3.7431,3.7392,3.7385,3.7375,3.7346,3.7337,3.7318,3.7295,3.7282,3.7256,3.7244,3.7209,3.7192,3.7171,3.7155,3.715,3.7138,3.7132,3.7141,3.7142,3.7134,3.7133,3.712,3.712,3.712,3.712,0,3.7471,3.7445,3.743,3.7396,3.7387,3.7381,3.7351,3.7342,3.732,3.7305,3.7299,3.7266,3.7245,3.7216,3.7185,3.7171,3.7158,3.7149,3.7168,3.7164,3.7168,3.7168,3.7185,3.7185,3.7155,3.7155,3.7155,0,3.7486,3.7479,3.7444,3.7434,3.7419,3.7403,3.739,3.736,3.7347,3.7316,3.7311,3.7288,3.7268,3.7235,3.7207,3.7184,3.7174,3.7181,3.717,3.7179,3.7175,3.7176,3.7175,3.7185,3.7185,3.7185,3.7186,0,3.7513,3.75,3.7483,3.746,3.7446,3.7426,3.7406,3.7398,3.7363,3.735,3.7329,3.7313,3.7282,3.7259,3.7231,3.7213,3.7193,3.7189,3.7188,3.7198,3.7209,3.7203,3.7176,3.7189,3.7189,3.7189,3.7188,3.7188,3.7538,3.753,3.7504,3.7485,3.7466,3.7447,3.7437,3.7414,3.7396,3.7369,3.7351,3.733,3.7302,3.7263,3.7245,3.7227,3.7219,3.7218,3.7218,3.7219,3.7221,3.721,3.7222,3.7221,3.7221,3.7221,3.7221,0,3.7564,3.7546,3.7528,3.75,3.7485,3.7467,3.7443,3.7431,3.7413,3.7389,3.737,3.7344,3.7321,3.729,3.7265,3.7256,3.7246,3.725,3.7251,3.7247,3.723,3.7233,3.7259,3.7259,3.7259,3.7259,3.7259,3.7259,3.7577,3.7564,3.7547,3.7523,3.7503,3.7484,3.7471,3.7452,3.7433,3.7406,3.7387,3.7367,3.7339,3.7311,3.7288,3.728,3.7272,3.7279,3.7267,3.7252,3.7249,3.7246,3.7249,3.7277,3.7277,3.7286,3.7286,3.7287]}]]